918  
AXUS43 KGID 201102  
MISGRI  
 
GID CWA HOURLY WEATHER ROUNDUP  
NATIONAL WEATHER SERVICE HASTINGS NE  
500 AM CST SUN JAN 20 2019  
 
NOTE: "FAIR" INDICATES FEW OR NO CLOUDS BELOW 12,000 FEET WITH NO  
SIGNIFICANT WEATHER AND/OR OBSTRUCTIONS TO VISIBILITY.  
   
..SOUTH CENTRAL NEBRASKA
 
 
 
CITY SKY/WX TMP DP RH WIND PRES REMARKS  
GRAND ISLAND CLOUDY 17 13 84 S14 30.11F WCI 3  
KEARNEY CLOUDY 18 15 88 S8 30.08S WCI 8  
HASTINGS CLOUDY 20 14 77 S10 30.12S WCI 9  
ORD FAIR 21 17 84 SE8 30.05F WCI 11  
YORK PTCLDY 12 7 79 MISG 30.18R  
AURORA CLOUDY 15 12 87 SE10 30.15R WCI 3  
LEXINGTON FAIR 22 19 86 CALM 30.05F  
HOLDREGE CLOUDY 20 18 93 S9 30.06F WCI 9  
HEBRON PTCLDY 14 10 83 SE8 30.21S WCI 3  
   
..NEBRASKA PANHANDLE
 
 
 
CITY SKY/WX TMP DP RH WIND PRES REMARKS  
CHADRON MOCLDY 30 26 85 SW9 30.01S WCI 22  
ALLIANCE PTCLDY 34 26 72 N10 29.99R WCI 26  
SCOTTSBLUFF PTCLDY 41 30 65 W12 29.99F  
SIDNEY CLEAR 34 23 64 W12 30.02F WCI 25  
   
..WESTERN AND NORTH CENTRAL NEBRASKA
 
 
 
CITY SKY/WX TMP DP RH WIND PRES REMARKS  
VALENTINE MOCLDY 29 27 92 E12 29.97R WCI 19  
AINSWORTH CLOUDY 23 23 100 CALM 29.98F  
ONEILL CLOUDY 16 12 86 SE5 30.08S WCI 8  
BROKEN BOW FAIR 21 18 88 S5 30.01F WCI 15  
IMPERIAL CLEAR 25 17 72 SW7 30.02F WCI 17  
NORTH PLATTE CLEAR 19 16 88 N6 30.03S WCI 11  
MCCOOK CLEAR 25 21 85 W9 30.06S WCI 15  
   
..EASTERN NEBRASKA
 
 
 
CITY SKY/WX TMP DP RH WIND PRES REMARKS  
NORFOLK CLOUDY 11 4 73 SE13 30.17S WCI -4  
SO SIOUX CITY CLOUDY 8 -3 61 E12 30.27S WCI -7  
TEKAMAH CLOUDY 11 4 73 SE12 30.26F WCI -3  
ALBION CLOUDY 15 10 82 SE12 30.13S WCI 1  
OMAHA EPPLEY CLOUDY 11 2 67 SE10 30.29F WCI -3  
OFFUTT AFB CLOUDY 10 9 97 E6 30.28S WCI 0  
MILLARD CLOUDY 12 3 67 SE8 30.28S WCI 1  
LINCOLN CLOUDY 11 1 64 SE10 30.26F WCI -3  
NEBRASKA CITY CLOUDY 9 -1 64 SE6 30.28F WCI -1  
BEATRICE CLOUDY 12 3 69 SE9 30.21F WCI -1  
FALLS CITY PTCLDY 9 0 67 E10 30.31F WCI -5  
   
..NORTHERN KANSAS
 
 
 
CITY SKY/WX TMP DP RH WIND PRES REMARKS  
GOODLAND CLEAR 32 22 66 W15 30.05F WCI 22  
HILL CITY CLOUDY 22 20 92 SW6 30.10F WCI 14  
PHILLIPSBURG CLOUDY 14 12 92 E6 30.11F WCI 5  
SMITH CENTER CLEAR 13 11 92 SE6 30.13F WCI 4  
HAYS CLOUDY 20 18 92 SW9 30.15F WCI 9  
RUSSELL CLOUDY 20 18 92 SW13 30.16R WCI 7  
CONCORDIA CLOUDY 15 10 80 S9 30.21F WCI 3  
SALINA CLOUDY 18 14 84 SE8 30.24F WCI 8  
TOPEKA CLOUDY 8 4 83 CALM 30.34S  
 
CLICK HERE TO GO TO PREVIOUS BULLETINS.

The Nexlab NE Page
The Nexlab KS Page Main Text Page